Lid_Strength_Index
-2 -2 -2 -2 -1 1 2 2 2 2 2 2 2 1 1 1 1 3 5 2 1 -1 -0 2 3 5 4 6 5 6 11 13 12 11 10 9 9 7 7 7 6 5 6 4 2
-2 -2 -2 -2 -2 -1 0 2 1 2 2 2 3 2 2 2 4 6 1 -1 -1 -1 2 4 5 5 8 7 7 8 11 11 9 9 10 9 8 8 8 8 7 6 4 3 3
-1 -2 -2 -2 -2 -2 -2 1 1 1 2 2 2 3 3 3 7 6 -0 -0 -1 -1 2 3 4 6 9 8 9 9 11 8 8 8 8 8 9 8 9 9 9 7 6 4 4
-2 -1 -1 -2 -1 -2 -2 -2 0 1 1 2 2 3 3 5 16 4 0 0 -0 0 3 4 5 8 10 10 8 11 9 9 7 6 7 8 7 9 9 9 7 5 4 4 4
-1 -1 -1 -1 -2 -2 -2 -2 -2 -0 0 1 2 2 5 9 10 3 2 1 1 2 4 5 7 8 10 10 10 11 10 8 8 7 7 6 8 8 7 6 6 5 4 4 4
-1 -1 -1 -1 -1 -2 -2 -2 -2 -2 -1 -0 2 1 6 11 5 4 4 3 2 4 5 5 6 6 8 8 10 8 8 8 8 8 7 8 8 8 7 5 5 6 6 5 4
-1 -1 -1 -1 -1 -1 -2 -2 -2 -2 -1 -0 0 3 6 8 2 2 3 4 3 3 5 5 4 6 7 9 7 8 10 9 9 9 8 7 10 9 7 5 6 6 6 7 5
-2 -1 -1 -1 -1 -1 -1 -2 -2 -2 -2 -1 -1 4 8 3 2 1 1 3 2 2 3 3 3 5 7 6 8 10 11 14 11 10 9 9 14 9 8 8 8 7 7 6 5
-2 -1 -2 -2 -1 -1 -1 -1 -2 -2 -1 -1 3 5 8 2 5 1 1 3 2 2 2 2 4 7 7 11 13 13 16 14 12 9 9 10 12 8 8 9 10 10 9 7 6
-1 -2 -2 -2 -1 -1 -1 -1 -1 -1 0 0 2 9 7 7 4 3 2 2 3 4 5 6 7 10 11 13 18 16 15 14 14 11 10 11 12 9 8 9 9 9 9 8 7
-2 -1 -2 -2 -2 -1 -1 1 4 5 3 7 7 7 6 4 3 3 2 3 3 6 10 8 11 14 12 10 11 12 14 14 12 10 11 12 12 11 9 10 11 11 9 8 7
-1 -1 -1 -2 -2 -2 -0 4 4 4 8 4 4 5 3 4 7 5 3 6 7 11 9 11 13 10 8 9 10 12 13 13 11 9 13 14 14 12 11 10 9 9 9 8 8
-1 -1 -1 -2 -2 -0 2 3 0 1 8 7 5 5 5 4 6 7 5 6 8 10 10 12 10 8 9 10 11 12 13 13 13 11 12 15 16 14 12 10 8 8 8 8 8
-1 -1 -1 -1 1 1 3 0 1 1 12 11 8 6 4 4 8 4 4 7 9 11 10 11 8 10 10 11 10 14 10 10 11 13 17 14 22 16 13 13 12 10 10 9 8
-1 -1 -1 -2 2 4 2 0 1 3 20 9 8 3 5 7 7 7 3 6 11 11 10 13 10 11 12 11 9 12 9 10 11 13 15 16 19 19 14 14 12 11 11 10 10
-1 -1 -2 0 1 1 -0 0 2 13 19 12 8 9 9 8 7 6 6 5 7 10 11 12 10 10 10 8 8 8 10 11 12 14 20 16 17 21 17 15 13 12 11 10 10
-1 -1 -0 0 4 0 -0 4 14 18 11 13 12 9 10 11 9 9 10 11 12 15 15 14 12 11 10 12 10 10 13 20 21 22 22 17 17 19 15 13 13 12 11 10 9
-0 -0 0 1 0 0 2 10 17 13 13 9 10 10 13 10 10 10 11 12 10 12 14 16 19 12 10 11 13 12 13 18 23 23 21 18 21 18 13 12 11 11 9 9 9
-0 2 3 3 0 0 7 15 15 13 10 11 11 13 13 11 11 11 12 12 10 10 14 15 14 11 10 10 10 12 15 11 16 21 20 18 17 14 13 12 12 11 10 9 9
2 4 5 3 1 3 10 13 12 8 8 9 14 12 15 13 13 13 13 10 11 9 10 12 15 11 10 9 10 11 9 16 17 25 26 20 20 18 15 13 11 11 11 10 10
3 6 5 2 2 7 13 12 10 7 7 10 11 13 12 13 12 13 13 11 9 10 9 11 13 14 11 13 13 12 13 13 12 16 20 22 21 15 13 12 12 11 11 10 10
4 10 3 1 9 9 12 11 8 9 7 9 9 10 12 11 13 13 13 11 8 9 12 10 13 17 14 11 9 10 12 12 17 19 17 17 19 13 13 12 11 11 10 10 10
7 7 2 2 12 11 9 10 9 9 9 10 11 9 9 11 14 12 11 8 8 8 10 10 13 20 17 13 12 13 12 11 12 13 17 19 20 12 12 12 12 11 11 10 11
7 10 7 6 7 10 11 11 11 8 9 8 9 9 10 11 10 12 11 9 8 8 7 7 12 14 17 16 13 14 12 11 12 16 17 16 16 14 12 11 11 11 11 10 11
7 9 9 11 10 9 9 10 12 12 9 8 10 10 11 14 12 12 10 10 8 7 8 9 14 12 12 13 13 13 13 12 13 14 15 15 14 13 10 10 10 10 10 11 10
8 8 7 9 8 9 9 12 11 11 10 11 12 10 10 12 12 13 11 10 11 9 9 9 16 12 14 12 14 15 13 12 12 13 12 13 14 10 9 9 11 9 9 10 10
4 4 7 9 10 10 10 10 11 9 9 8 9 10 11 9 8 8 7 7 8 10 10 11 13 17 17 13 14 16 14 13 12 11 11 14 12 9 9 9 8 8 10 10 10